Regional Weather Roundup
Issued by NWS Charleston, WV

Home | Current Version | Previous Version | Graphics & Text | Print | Product List | Glossary On
Versions: 1 2 3 4 5 6 7 8 9 10 11 12 13 14 15 16 17 18 19 20 21 22 23 24 25 26 27 28 29 30 31 32 33 34 35 36 37 38 39 40 41 42 43 44 45 46 47 48 49 50
000
ASUS41 KRLX 031710
RWRRLX
West Virginia Regional Weather Roundup
National Weather Service Charleston WV
1200 PM EST TUE MAR 03 2015

Note: "fair" indicates few or no clouds below 12,000 feet with no
significant weather and/or obstructions to visibility.

WVZ003-031800-
Northern Panhandle of West Virginia

CITY           SKY/WX    TMP DP  RH WIND       PRES   REMARKS
WHEELING       CLOUDY    33  19  56 SE7       30.00F
$$

WVZ009-031800-
Northwest West Virginia

CITY           SKY/WX    TMP DP  RH WIND       PRES   REMARKS
PARKERSBURG    CLOUDY    38  24  57 S5        30.04F
$$

WVZ006-031800-
Western West Virginia

CITY           SKY/WX    TMP DP  RH WIND       PRES   REMARKS
HUNTINGTON     CLOUDY    38  35  89 S6        30.01F
$$

WVZ015-031800-
West Central West Virginia

CITY           SKY/WX    TMP DP  RH WIND       PRES   REMARKS
CHARLESTON     CLOUDY    43  36  76 S6        30.03F
$$

WVZ022-031-031800-
North Central West Virginia

CITY           SKY/WX    TMP DP  RH WIND       PRES   REMARKS
CLARKSBURG     CLOUDY    37  25  61 CALM      30.04F
MORGANTOWN     CLOUDY    41  25  53 S3        30.04F
$$

WVZ025-035-042-045-031800-
Southern West Virginia

CITY           SKY/WX    TMP DP  RH WIND       PRES   REMARKS
BECKLEY        LGT RAIN  36  30  79 SE15G25   30.10F
LOGAN          CLOUDY    43  39  87 S6G13     30.02F
BLUEFIELD      CLOUDY    41  30  65 VRB6G17   30.13F
LEWISBURG      MIX PCPN  34  32  92 N6        30.17F
$$

WVZ047-031800-
Northern Mountains of West Virginia

CITY           SKY/WX    TMP DP  RH WIND       PRES   REMARKS
ELKINS         CLOUDY    40  30  67 S10       30.06F
$$

WVZ052-031800-
Eastern Panhandle of West Virginia

CITY           SKY/WX    TMP DP  RH WIND       PRES   REMARKS
MARTINSBURG    MIX PCPN  33  15  47 S10G21    30.25F
PETERSBURG     CLOUDY    35  20  54 CALM      30.17F
$$


USA.gov is the U.S. government's official web portal to all federal, state and local government web resources and services.